Preview of NWS' New Version of Forecast
This preview is not operational and should not be used for support decisions.

Regional Weather Roundup (RWR)

Issued by Philadelphia/Mt Holly (PHI)

                            
000
ASUS41 KPHI 260012
RWRPHI

REGIONAL WEATHER ROUNDUP
NATIONAL WEATHER SERVICE MOUNT HOLLY NJ
800 PM EDT SAT MAY 25 2019

NOTE:  "FAIR" INDICATES FEW OR NO CLOUDS BELOW 12,000 FEET WITH NO
SIGNIFICANT WEATHER AND/OR OBSTRUCTIONS TO VISIBILITY.

 * = STATION DOES NOT REPORT PRECIPITATION (E.G. RAIN, SNOW, ETC.) 
        OR FOG.

NJZ015>026-260100-
SOUTHERN NEW JERSEY
  
CITY           SKY/WX    TMP DP  RH WIND       PRES   REMARKS
POMONA         FAIR      62  54  74 S12G17    30.14F                  
6HR MIN TEMP:  62; 6HR MAX TEMP:  69;                                

WILDWOOD*      MOCLDY    62  57  83 S12       30.14F                  
MILLVILLE      MOCLDY    63  53  70 SE9       30.12F                  
WRIGHTSTOWN    FAIR      64  51  61 S6        30.10R                  
MOUNT HOLLY    FAIR      64  51  62 VRB5      30.11R                  
TRENTON        MOCLDY    67  53  61 S14       30.10R                  
6HR MIN TEMP:  67; 6HR MAX TEMP:  73;                                


$$
NJZ001>014-260100-
NORTHERN NEW JERSEY
  
CITY           SKY/WX    TMP DP  RH WIND       PRES   REMARKS
SUSSEX         CLOUDY    69  56  62 S5        30.06F                  
ANDOVER*         N/A     68  54  60 VRB6      30.07S                  
MORRISTOWN     PTCLDY    66  52  59 SE8       30.08S                  
NEWARK         MOCLDY    65  48  54 S10       30.09F                  
TETERBORO      FAIR      64  48  56 S12       30.09S                  
CALDWELL       FAIR      68  47  46 S9        30.08S                  
SOMERVILLE     MOCLDY    68  52  56 S6        30.07S                  
ALLAIRE*       FAIR      61  53  75 S10       30.13S                  
TOMS RIVER*    FAIR      61  53  75 S6        30.15R                  

$$
PAZ043-044-047-054-055-060>062-066>071-260100-
EASTERN PENNSYLVANIA
  
CITY           SKY/WX    TMP DP  RH WIND       PRES   REMARKS
PHILADELPHIA   MOCLDY    68  52  56 S10       30.10S                  
6HR MIN TEMP:  68; 6HR MAX TEMP:  74;                                

NORTH PHILA    CLOUDY    70  53  54 VRB7      30.12R                  
BLUE BELL*     FAIR      68  55  62 SE12      30.10S                  
DOYLESTOWN     MOCLDY    69  54  58 S8        30.08R                  
QUAKERTOWN*    MOCLDY    68  57  68 VRB6G14   30.08F                  
PERKASIE*      CLOUDY    68  55  64 S3        30.09S                  
POTTSTOWN      FAIR      66  54  65 S6        30.09F                  
LANCASTER      FAIR      70  60  70 SE9       30.04F                  
COATESVILLE    FAIR      63  55  77 SE9       30.09F                  
WEST CHESTER   MOCLDY    66  54  63 S8        30.09F                  
READING        FAIR      69  58  67 SE10      30.04F                  
6HR MIN TEMP:  69; 6HR MAX TEMP:  74;                                

ALLENTOWN        N/A     72  56  57 MISG      30.05F                  
6HR MIN TEMP:  71; 6HR MAX TEMP:  75;                                

QN CITY/ALNTWN FAIR      70  57  64 S7G16     30.07F                  
MOUNT POCONO   MOCLDY    62  55  77 S9        30.08F                  
6HR MIN TEMP:  61; 6HR MAX TEMP:  66;                                

HAZLETON       FAIR      64  55  72 S7        30.08F                  
LEHIGHTON      CLOUDY    68  57  68 S3        30.06F                  
WILKES BARRE   CLOUDY    69  56  62 VRB6      30.02S                  

$$
DEZALL-MDZ008-012-015-019-020-260100-
DELAWARE AND EASTERN MARYLAND
  
CITY           SKY/WX    TMP DP  RH WIND       PRES   REMARKS
WILMINGTON     FAIR      65  55  70 SE16      30.10F                  
6HR MIN TEMP:  65; 6HR MAX TEMP:  72;                                

CHESWOLD         N/A     64  57  77 SE7       30.09F                  
GEORGETOWN     FAIR      66  58  75 SE10      30.12S                  
6HR MIN TEMP:  66; 6HR MAX TEMP:  74;                                

EASTON         MOCLDY    73  61  64 SE10      30.13F                  
STEVENSVILLE   CLOUDY    72  63  73 S13       30.07F                  
PATUXENT       MOCLDY    71  67  87 SE14      30.08F                  
OCEAN CITY     FAIR      64  59  83 VRB6      30.14R                  
WALLOPS ISLAND FAIR      68  63  84 S9        30.14R                  
CAMBRIDGE      CLEAR     70  61  73 SE12G17   30.09F                  
SALISBURY      FAIR      67  60  78 SE8       30.12R                  

$$
PAZ001-021-NYZ056-072-MDZ011-DCZ001-260100-
OTHER NEARBY LOCATIONS
  
CITY           SKY/WX    TMP DP  RH WIND       PRES   REMARKS
HARRISBURG     MOCLDY    73  61  65 SE10      30.01F                  
STATE COLLEGE  CLEAR     72  64  78 SW10      29.98F                  
WILLIAMSPORT   FAIR      73  59  61 SE13G21   29.95F                  
BINGHAMTON     MOCLDY    65  57  75 S8        29.97S                  
NEW YORK CITY  FAIR      62  46  55 VRB7      30.13F                  
BALTIMORE      LGT RAIN  70  63  78 SE7       30.06F                  
WASHINGTON DC  MOCLDY    74  64  71 SE9       30.07R                  

$$